,,PA_Meas_PMT16A,,PR_Meas_QMR101_102,,RH_Meas_QMH101,,SR_Meas_QMS101,,TA_Meas_QMH101,,GenWind,,GenWind,
time,status,PA,status,PR,status,RH,status,SR,status,TA,status,DirAvg,status,SpdAvg,
2012-05-09, 00:00:04,VALID,918.984,VALID,0,VALID,96.0169,VALID,0,VALID,20.6358,VALID,355,VALID,0.40625,
2012-05-09, 00:01:04,VALID,918.962,VALID,0,VALID,96.0627,VALID,0.107441,VALID,20.6358,VALID,355,VALID,0.652734,
2012-05-09, 00:02:04,VALID,918.979,VALID,0,VALID,96.1008,VALID,0,VALID,20.6358,VALID,355,VALID,0.439844,
2012-05-09, 00:03:04,VALID,918.985,VALID,0,VALID,96.1389,VALID,0.107441,VALID,20.6553,VALID,355,VALID,0.703516,
2012-05-09, 00:04:04,VALID,918.983,VALID,0,VALID,96.1389,VALID,0,VALID,20.6358,VALID,355,VALID,0.416406,
2012-05-09, 00:05:04,VALID,919,VALID,0,VALID,96.1236,VALID,0,VALID,20.6569,VALID,355,VALID,0.369531,
2012-05-09, 00:06:04,VALID,918.964,VALID,0,VALID,96.0627,VALID,0.107441,VALID,20.6553,VALID,355,VALID,0.331641,
2012-05-09, 00:07:04,VALID,918.971,VALID,0,VALID,95.9712,VALID,0,VALID,20.6358,VALID,355,VALID,0.530859,
2012-05-09, 00:08:04,VALID,918.977,VALID,0,VALID,95.895,VALID,0,VALID,20.6163,VALID,355,VALID,0.371875,
2012-05-09, 00:09:04,VALID,918.95,VALID,0,VALID,95.895,VALID,0,VALID,20.6163,VALID,355,VALID,0.907031,
2012-05-09, 00:10:04,VALID,918.944,VALID,0,VALID,95.8797,VALID,0,VALID,20.6179,VALID,355,VALID,0.374219,
2012-05-09, 00:11:04,VALID,918.918,VALID,0,VALID,95.8416,VALID,0,VALID,20.6179,VALID,355,VALID,0,
2012-05-09, 00:12:04,VALID,918.932,VALID,0,VALID,95.7882,VALID,0,VALID,20.6374,VALID,355,VALID,0.0382813,
2012-05-09, 00:13:04,VALID,918.925,VALID,0,VALID,95.7196,VALID,0,VALID,20.6374,VALID,355,VALID,0,
2012-05-09, 00:14:04,VALID,918.913,VALID,0,VALID,95.6357,VALID,0,VALID,20.6374,VALID,355,VALID,0,
2012-05-09, 00:15:04,VALID,918.897,VALID,0,VALID,95.5748,VALID,0,VALID,20.6374,VALID,355,VALID,0,
2012-05-09, 00:16:04,VALID,918.871,VALID,0,VALID,95.4604,VALID,0,VALID,20.6585,VALID,355,VALID,0.127344,
2012-05-09, 00:17:04,VALID,918.895,VALID,0,VALID,95.3613,VALID,0,VALID,20.6374,VALID,355,VALID,0.342969,
2012-05-09, 00:18:04,VALID,918.857,VALID,0,VALID,95.2927,VALID,0,VALID,20.6374,VALID,355,VALID,0.276172,
2012-05-09, 00:19:04,VALID,918.872,VALID,0,VALID,95.2088,VALID,0,VALID,20.6569,VALID,355,VALID,0,
2012-05-09, 00:20:04,VALID,918.863,VALID,0,VALID,95.125,VALID,0,VALID,20.6374,VALID,355,VALID,0,
2012-05-09, 00:21:04,VALID,918.851,VALID,0,VALID,95.0335,VALID,0,VALID,20.6374,VALID,355,VALID,0.1,
2012-05-09, 00:22:04,VALID,918.864,VALID,0,VALID,94.9649,VALID,0,VALID,20.6374,VALID,355,VALID,0.466406,
2012-05-09, 00:23:04,VALID,918.852,VALID,0,VALID,94.8963,VALID,0,VALID,20.6569,VALID,355,VALID,0.303516,
2012-05-09, 00:24:04,VALID,918.871,VALID,0,VALID,94.8048,VALID,0,VALID,20.6764,VALID,5,VALID,0.583984,
2012-05-09, 00:25:04,VALID,918.857,VALID,0,VALID,94.7209,VALID,0,VALID,20.6748,VALID,5,VALID,0.782031,
2012-05-09, 00:26:04,VALID,918.88,VALID,0,VALID,94.66,VALID,0,VALID,20.6764,VALID,5,VALID,0.355859,
2012-05-09, 00:27:04,VALID,918.856,VALID,0,VALID,94.5913,VALID,0,VALID,20.6569,VALID,5,VALID,0.348047,
2012-05-09, 00:28:04,VALID,918.855,VALID,0,VALID,94.5151,VALID,0,VALID,20.6179,VALID,5,VALID,0.467969,
2012-05-09, 00:29:04,VALID,918.822,VALID,0,VALID,94.599,VALID,0,VALID,20.5968,VALID,5,VALID,0.660547,
2012-05-09, 00:30:04,VALID,918.814,VALID,0,VALID,94.6828,VALID,0,VALID,20.6179,VALID,5,VALID,0.326172,
2012-05-09, 00:31:04,VALID,918.831,VALID,0,VALID,94.7438,VALID,0,VALID,20.6179,VALID,5,VALID,0.274609,
2012-05-09, 00:32:04,VALID,918.806,VALID,0,VALID,94.7743,VALID,0,VALID,20.6374,VALID,5,VALID,0.0105469,
2012-05-09, 00:33:04,VALID,918.82,VALID,0,VALID,94.8048,VALID,0,VALID,20.6374,VALID,5,VALID,0,
2012-05-09, 00:34:04,VALID,918.825,VALID,0,VALID,94.7743,VALID,0,VALID,20.6163,VALID,5,VALID,0,
2012-05-09, 00:35:04,VALID,918.812,VALID,0,VALID,94.7819,VALID,0,VALID,20.5968,VALID,5,VALID,0,
2012-05-09, 00:36:04,VALID,918.823,VALID,0,VALID,94.8429,VALID,0,VALID,20.6163,VALID,5,VALID,0,
2012-05-09, 00:37:04,VALID,918.787,VALID,0,VALID,94.8505,VALID,0,VALID,20.6163,VALID,5,VALID,0,
2012-05-09, 00:38:04,VALID,918.783,VALID,0,VALID,94.8505,VALID,0,VALID,20.5968,VALID,5,VALID,0,
2012-05-09, 00:39:04,VALID,918.78,VALID,0,VALID,94.6523,VALID,0,VALID,20.5773,VALID,5,VALID,0,
2012-05-09, 00:40:04,VALID,918.801,VALID,0,VALID,94.3093,VALID,0,VALID,20.4993,VALID,5,VALID,0,
2012-05-09, 00:41:04,VALID,918.768,VALID,0,VALID,94.2712,VALID,0,VALID,20.4603,VALID,5,VALID,0,
2012-05-09, 00:42:04,VALID,918.752,VALID,0,VALID,94.2712,VALID,0,VALID,20.4423,VALID,5,VALID,0,
2012-05-09, 00:43:04,VALID,918.738,VALID,0,VALID,94.4389,VALID,0,VALID,20.4408,VALID,5,VALID,0,
2012-05-09, 00:44:04,VALID,918.717,VALID,0,VALID,94.5685,VALID,0,VALID,20.4408,VALID,5,VALID,0,
2012-05-09, 00:45:04,VALID,918.685,VALID,0,VALID,94.6752,VALID,0,VALID,20.4392,VALID,5,VALID,0,
2012-05-09, 00:46:04,VALID,918.665,VALID,0,VALID,94.7286,VALID,0,VALID,20.4603,VALID,5,VALID,0,
2012-05-09, 00:47:04,VALID,918.676,VALID,0,VALID,94.7209,VALID,0.107441,VALID,20.4197,VALID,5,VALID,0,
2012-05-09, 00:48:04,VALID,918.636,VALID,0,VALID,94.7743,VALID,0,VALID,20.4603,VALID,5,VALID,0,
2012-05-09, 00:49:04,VALID,918.66,VALID,0,VALID,94.7819,VALID,0.107441,VALID,20.4993,VALID,5,VALID,0,
2012-05-09, 00:50:04,VALID,918.586,VALID,0,VALID,94.7209,VALID,0,VALID,20.4993,VALID,5,VALID,0,
2012-05-09, 00:51:04,VALID,918.6,VALID,0,VALID,94.6523,VALID,0,VALID,20.4798,VALID,5,VALID,0,
2012-05-09, 00:52:04,VALID,918.518,VALID,0,VALID,94.6828,VALID,0,VALID,20.5188,VALID,5,VALID,0,
2012-05-09, 00:53:04,VALID,918.51,VALID,0,VALID,94.5913,VALID,0,VALID,20.5383,VALID,5,VALID,0,
2012-05-09, 00:54:04,VALID,918.492,VALID,0,VALID,94.5304,VALID,0,VALID,20.5383,VALID,5,VALID,0,
2012-05-09, 00:55:04,VALID,918.466,VALID,0,VALID,94.4922,VALID,0.107441,VALID,20.5984,VALID,5,VALID,0,
2012-05-09, 00:56:04,VALID,918.467,VALID,0,VALID,94.3245,VALID,0,VALID,20.5773,VALID,5,VALID,0.034375,
2012-05-09, 00:57:04,VALID,918.442,VALID,0,VALID,94.1949,VALID,0.107441,VALID,20.5984,VALID,5,VALID,0,
2012-05-09, 00:58:04,VALID,918.433,VALID,0,VALID,94.0348,VALID,0,VALID,20.5773,VALID,5,VALID,0.463672,
2012-05-09, 00:59:04,VALID,918.447,VALID,0,VALID,93.9129,VALID,0.107441,VALID,20.5578,VALID,5,VALID,0.713672,
2012-05-09, 01:00:04,VALID,918.442,VALID,0,VALID,93.9357,VALID,0,VALID,20.5383,VALID,5,VALID,0.819531,
2012-05-09, 01:01:04,VALID,918.447,VALID,0,VALID,93.9738,VALID,0.107441,VALID,20.4798,VALID,5,VALID,0.668359,
2012-05-09, 01:02:04,VALID,918.482,VALID,0,VALID,94.0348,VALID,0.107441,VALID,20.4618,VALID,5,VALID,0.535547,
2012-05-09, 01:03:04,VALID,918.464,VALID,0,VALID,94.1339,VALID,0,VALID,20.4408,VALID,5,VALID,0.25625,
2012-05-09, 01:04:04,VALID,918.495,VALID,0,VALID,94.3245,VALID,0.107441,VALID,20.4408,VALID,5,VALID,0.292188,
2012-05-09, 01:05:04,VALID,918.494,VALID,0,VALID,94.4465,VALID,0.107441,VALID,20.4813,VALID,5,VALID,0,
2012-05-09, 01:06:04,VALID,918.487,VALID,0,VALID,94.4465,VALID,0,VALID,20.4603,VALID,5,VALID,0,
2012-05-09, 01:07:04,VALID,918.48,VALID,0,VALID,94.2026,VALID,0,VALID,20.4618,VALID,5,VALID,0,
2012-05-09, 01:08:04,VALID,918.47,VALID,0,VALID,94.0501,VALID,0,VALID,20.4213,VALID,5,VALID,0,
2012-05-09, 01:09:04,VALID,918.459,VALID,0,VALID,93.8671,VALID,0.107441,VALID,20.4213,VALID,5,VALID,0.207031,
2012-05-09, 01:10:04,VALID,918.434,VALID,0,VALID,93.8519,VALID,0,VALID,20.4634,VALID,5,VALID,0.0492188,
2012-05-09, 01:11:04,VALID,918.405,VALID,0,VALID,93.7833,VALID,0,VALID,20.4829,VALID,5,VALID,0,
2012-05-09, 01:12:04,VALID,918.389,VALID,0,VALID,93.6842,VALID,0,VALID,20.5009,VALID,5,VALID,0,
2012-05-09, 01:13:04,VALID,918.402,VALID,0,VALID,93.6003,VALID,0,VALID,20.5009,VALID,5,VALID,0,
2012-05-09, 01:14:04,VALID,918.401,VALID,0,VALID,93.6079,VALID,0,VALID,20.5204,VALID,5,VALID,0,
2012-05-09, 01:15:04,VALID,918.393,VALID,0,VALID,93.5774,VALID,0,VALID,20.5414,VALID,5,VALID,0,
2012-05-09, 01:16:04,VALID,918.362,VALID,0,VALID,93.4631,VALID,0,VALID,20.4829,VALID,5,VALID,0.530078,
2012-05-09, 01:17:04,VALID,918.359,VALID,0,VALID,93.4326,VALID,0,VALID,20.4228,VALID,5,VALID,0.258203,
2012-05-09, 01:18:04,VALID,918.387,VALID,0,VALID,93.6765,VALID,0,VALID,20.3838,VALID,5,VALID,0.0847656,
2012-05-09, 01:19:04,VALID,918.365,VALID,0,VALID,93.7833,VALID,0,VALID,20.3854,VALID,5,VALID,0,
2012-05-09, 01:20:04,VALID,918.358,VALID,0,VALID,93.6994,VALID,0,VALID,20.3448,VALID,5,VALID,0,
2012-05-09, 01:21:04,VALID,918.335,VALID,0,VALID,93.9205,VALID,0,VALID,20.3253,VALID,5,VALID,0,
2012-05-09, 01:22:04,VALID,918.269,VALID,0,VALID,94.0272,VALID,0,VALID,20.2863,VALID,5,VALID,0,
2012-05-09, 01:23:04,VALID,918.251,VALID,0,VALID,94.0882,VALID,0,VALID,20.2278,VALID,5,VALID,0,
2012-05-09, 01:24:04,VALID,918.221,VALID,0,VALID,93.9967,VALID,0,VALID,20.1303,VALID,5,VALID,0.564062,
2012-05-09, 01:25:04,VALID,918.231,VALID,0,VALID,94.355,VALID,0.107441,VALID,20.0718,VALID,5,VALID,0.659375,
2012-05-09, 01:26:04,VALID,918.224,VALID,0,VALID,94.8048,VALID,0,VALID,20.0523,VALID,5,VALID,0.692187,
2012-05-09, 01:27:04,VALID,918.233,VALID,0,VALID,95.1479,VALID,0.107441,VALID,20.0523,VALID,5,VALID,0.430469,
2012-05-09, 01:28:04,VALID,918.204,VALID,0,VALID,95.4452,VALID,0,VALID,20.0313,VALID,5,VALID,0.479688,
2012-05-09, 01:29:04,VALID,918.192,VALID,0,VALID,95.6053,VALID,0,VALID,20.0313,VALID,5,VALID,0.447266,
2012-05-09, 01:30:04,VALID,918.153,VALID,0,VALID,95.7958,VALID,0,VALID,20.0523,VALID,5,VALID,0.266016,
2012-05-09, 01:31:04,VALID,918.141,VALID,0,VALID,95.9026,VALID,0,VALID,20.0718,VALID,5,VALID,0.30625,
2012-05-09, 01:32:04,VALID,918.111,VALID,0,VALID,95.9788,VALID,0,VALID,20.0913,VALID,5,VALID,0.152344,
2012-05-09, 01:33:04,VALID,918.091,VALID,0,VALID,95.9941,VALID,0,VALID,20.0913,VALID,5,VALID,0.239453,
2012-05-09, 01:34:04,VALID,918.092,VALID,0,VALID,96.0245,VALID,0,VALID,20.1303,VALID,5,VALID,0.528906,
2012-05-09, 01:35:04,VALID,918.078,VALID,0,VALID,96.0093,VALID,0,VALID,20.1303,VALID,5,VALID,0.536719,
2012-05-09, 01:36:04,VALID,918.047,VALID,0,VALID,95.8645,VALID,0,VALID,20.0913,VALID,5,VALID,0.817578,
2012-05-09, 01:37:04,VALID,918.01,VALID,0,VALID,96.0017,VALID,0,VALID,20.0913,VALID,5,VALID,0.978516,
2012-05-09, 01:38:04,VALID,917.978,VALID,0,VALID,96.0398,VALID,0.107441,VALID,20.0703,VALID,49,VALID,1.18906,
2012-05-09, 01:39:04,VALID,917.963,VALID,0,VALID,96.1541,VALID,0.107441,VALID,20.1108,VALID,127,VALID,1.08789,
2012-05-09, 01:40:04,VALID,917.964,VALID,0,VALID,96.2304,VALID,0.107441,VALID,20.0898,VALID,127,VALID,1.06094,
2012-05-09, 01:41:04,VALID,917.939,VALID,0,VALID,96.2914,VALID,0,VALID,20.0913,VALID,127,VALID,0.671484,
2012-05-09, 01:42:04,VALID,917.951,VALID,0,VALID,96.3676,VALID,0,VALID,20.1303,VALID,127,VALID,0.805078,
2012-05-09, 01:43:04,VALID,917.91,VALID,0,VALID,96.421,VALID,0,VALID,20.1303,VALID,127,VALID,0.401953,
2012-05-09, 01:44:04,VALID,917.859,VALID,0,VALID,96.3981,VALID,0.107441,VALID,20.1108,VALID,127,VALID,0.682422,
2012-05-09, 01:45:04,VALID,917.847,VALID,0,VALID,96.4133,VALID,0.107441,VALID,20.0718,VALID,127,VALID,0.930078,
2012-05-09, 01:46:04,VALID,917.831,VALID,0,VALID,96.3905,VALID,0,VALID,20.0328,VALID,127,VALID,0.701172,
2012-05-09, 01:47:04,VALID,917.794,VALID,0,VALID,96.4515,VALID,0.107441,VALID,20.0133,VALID,127,VALID,0.683984,
2012-05-09, 01:48:04,VALID,917.784,VALID,0,VALID,96.4743,VALID,0.107441,VALID,19.9743,VALID,127,VALID,0.467187,
2012-05-09, 01:49:04,VALID,917.776,VALID,0,VALID,96.4515,VALID,0.107441,VALID,19.9353,VALID,127,VALID,0.583203,
2012-05-09, 01:50:04,VALID,917.744,VALID,0,VALID,96.4133,VALID,0.107441,VALID,19.8768,VALID,127,VALID,0.64375,
2012-05-09, 01:51:04,VALID,917.733,VALID,0,VALID,96.5353,VALID,0,VALID,19.8363,VALID,127,VALID,0.761719,
2012-05-09, 01:52:04,VALID,917.707,VALID,0,VALID,96.5658,VALID,0,VALID,19.8168,VALID,127,VALID,0.789844,
2012-05-09, 01:53:04,VALID,917.688,VALID,0,VALID,96.5734,VALID,0.107441,VALID,19.7778,VALID,127,VALID,0.805859,
2012-05-09, 01:54:04,VALID,917.681,VALID,0,VALID,96.7488,VALID,0.107441,VALID,19.8183,VALID,127,VALID,0.866797,
2012-05-09, 01:55:04,VALID,917.689,VALID,0,VALID,96.8555,VALID,0.107441,VALID,19.8558,VALID,127,VALID,0.626953,
2012-05-09, 01:56:04,VALID,917.704,VALID,0,VALID,96.7945,VALID,0.107441,VALID,19.8573,VALID,127,VALID,0.667969,
2012-05-09, 01:57:04,VALID,917.719,VALID,0,VALID,96.7488,VALID,0,VALID,19.8573,VALID,127,VALID,0.391797,
2012-05-09, 01:58:04,VALID,917.682,VALID,0,VALID,96.7869,VALID,0,VALID,19.8378,VALID,127,VALID,0.359766,
2012-05-09, 01:59:04,VALID,917.729,VALID,0,VALID,96.8021,VALID,0,VALID,19.8363,VALID,127,VALID,0.343359,
2012-05-09, 02:00:04,VALID,917.711,VALID,0,VALID,96.8936,VALID,0,VALID,19.8573,VALID,127,VALID,0.248437,
2012-05-09, 02:01:04,VALID,917.711,VALID,0,VALID,96.8784,VALID,0.107441,VALID,19.8768,VALID,127,VALID,0.23125,
2012-05-09, 02:02:04,VALID,917.705,VALID,0,VALID,96.9241,VALID,0.107441,VALID,19.8963,VALID,127,VALID,0.408984,
2012-05-09, 02:03:04,VALID,917.728,VALID,0,VALID,96.9394,VALID,0,VALID,19.9353,VALID,127,VALID,0.448828,
2012-05-09, 02:04:04,VALID,917.68,VALID,0,VALID,96.9089,VALID,0,VALID,19.9548,VALID,127,VALID,0.438672,
2012-05-09, 02:05:04,VALID,917.667,VALID,0,VALID,96.8784,VALID,0.107441,VALID,19.9353,VALID,127,VALID,0.511719,
2012-05-09, 02:06:04,VALID,917.644,VALID,0,VALID,96.8784,VALID,0,VALID,19.9158,VALID,127,VALID,0.275391,
2012-05-09, 02:07:04,VALID,917.627,VALID,0,VALID,96.9698,VALID,0.107441,VALID,19.9548,VALID,127,VALID,0.519531,
2012-05-09, 02:08:04,VALID,917.656,VALID,0,VALID,96.9927,VALID,0,VALID,19.9938,VALID,127,VALID,0,
2012-05-09, 02:09:04,VALID,917.641,VALID,0,VALID,96.9622,VALID,0,VALID,19.9938,VALID,127,VALID,0.311328,
2012-05-09, 02:10:04,VALID,917.615,VALID,0,VALID,96.9546,VALID,0,VALID,19.9938,VALID,127,VALID,0.460156,
2012-05-09, 02:11:04,VALID,917.617,VALID,0,VALID,96.947,VALID,0,VALID,19.9938,VALID,332,VALID,1.12344,
2012-05-09, 02:12:04,VALID,917.606,VALID,0,VALID,96.9089,VALID,0,VALID,19.9728,VALID,359,VALID,1.16836,
2012-05-09, 02:13:04,VALID,917.592,VALID,0,VALID,96.8021,VALID,0,VALID,19.9743,VALID,303,VALID,0.361719,
2012-05-09, 02:14:04,VALID,917.585,VALID,0,VALID,96.8098,VALID,0,VALID,20.0133,VALID,303,VALID,0.205469,
2012-05-09, 02:15:04,VALID,917.564,VALID,0,VALID,96.7259,VALID,0.107441,VALID,20.0133,VALID,303,VALID,0.460938,
2012-05-09, 02:16:04,VALID,917.545,VALID,0,VALID,96.6802,VALID,0,VALID,20.0133,VALID,303,VALID,0,
2012-05-09, 02:17:04,VALID,917.536,VALID,0,VALID,96.6573,VALID,0,VALID,20.0328,VALID,303,VALID,0,
2012-05-09, 02:18:04,VALID,917.503,VALID,0,VALID,96.7107,VALID,0,VALID,20.0523,VALID,303,VALID,0,
2012-05-09, 02:19:04,VALID,917.527,VALID,0,VALID,96.7107,VALID,0,VALID,20.0913,VALID,303,VALID,0,
2012-05-09, 02:20:04,VALID,917.511,VALID,0,VALID,96.7107,VALID,0.107441,VALID,20.0913,VALID,303,VALID,0.0988281,
2012-05-09, 02:21:04,VALID,917.497,VALID,0,VALID,96.6954,VALID,0.107441,VALID,20.0718,VALID,303,VALID,0.235156,
2012-05-09, 02:22:04,VALID,917.471,VALID,0,VALID,96.6268,VALID,0.107441,VALID,20.0913,VALID,303,VALID,0.0015625,
2012-05-09, 02:23:04,VALID,917.461,VALID,0,VALID,96.5963,VALID,0,VALID,20.0718,VALID,303,VALID,0,
2012-05-09, 02:24:04,VALID,917.464,VALID,0,VALID,96.5048,VALID,0.107441,VALID,20.0523,VALID,303,VALID,0,
2012-05-09, 02:25:04,VALID,917.455,VALID,0,VALID,96.4743,VALID,0,VALID,20.0148,VALID,303,VALID,0.341797,
2012-05-09, 02:26:04,VALID,917.436,VALID,0,VALID,96.4819,VALID,0,VALID,19.9758,VALID,303,VALID,0.368359,
2012-05-09, 02:27:04,VALID,917.416,VALID,0,VALID,96.4819,VALID,0,VALID,19.9353,VALID,303,VALID,0.103125,
2012-05-09, 02:28:04,VALID,917.429,VALID,0,VALID,96.4743,VALID,0,VALID,19.9563,VALID,303,VALID,0,
2012-05-09, 02:29:04,VALID,917.422,VALID,0,VALID,96.4438,VALID,0,VALID,19.9563,VALID,303,VALID,0,
2012-05-09, 02:30:04,VALID,917.415,VALID,0,VALID,96.3752,VALID,0,VALID,19.9563,VALID,303,VALID,0,
2012-05-09, 02:31:04,VALID,917.377,VALID,0,VALID,96.3371,VALID,0,VALID,19.9173,VALID,303,VALID,0,
2012-05-09, 02:32:04,VALID,917.395,VALID,0,VALID,96.2609,VALID,0,VALID,19.8978,VALID,303,VALID,0.380859,
2012-05-09, 02:33:04,VALID,917.386,VALID,0,VALID,96.238,VALID,0,VALID,19.8573,VALID,303,VALID,0.325391,
2012-05-09, 02:34:04,VALID,917.391,VALID,0,VALID,96.1846,VALID,0,VALID,19.8768,VALID,303,VALID,0.179688,
2012-05-09, 02:35:04,VALID,917.359,VALID,0,VALID,96.1236,VALID,0,VALID,19.8588,VALID,303,VALID,0,
2012-05-09, 02:36:04,VALID,917.334,VALID,0,VALID,96.055,VALID,0,VALID,19.8588,VALID,303,VALID,0,
2012-05-09, 02:37:04,VALID,917.335,VALID,0,VALID,95.9864,VALID,0,VALID,19.8588,VALID,303,VALID,0.544922,
2012-05-09, 02:38:04,VALID,917.255,VALID,0,VALID,95.9407,VALID,0,VALID,19.8393,VALID,303,VALID,0.64375,
2012-05-09, 02:39:04,VALID,917.215,VALID,0,VALID,95.8873,VALID,0,VALID,19.8003,VALID,303,VALID,0.607813,
2012-05-09, 02:40:04,VALID,917.181,VALID,0,VALID,95.8645,VALID,0,VALID,19.7793,VALID,303,VALID,0.630078,
2012-05-09, 02:41:04,VALID,917.155,VALID,0,VALID,95.7958,VALID,0,VALID,19.7388,VALID,303,VALID,0.592188,
2012-05-09, 02:42:04,VALID,917.136,VALID,0,VALID,95.7349,VALID,0.107441,VALID,19.7208,VALID,303,VALID,0.59375,
2012-05-09, 02:43:04,VALID,917.106,VALID,0,VALID,95.7272,VALID,0,VALID,19.6803,VALID,303,VALID,0.513281,
2012-05-09, 02:44:04,VALID,917.105,VALID,0,VALID,95.7272,VALID,0,VALID,19.7013,VALID,303,VALID,0.382813,
2012-05-09, 02:45:04,VALID,917.079,VALID,0,VALID,95.7577,VALID,0,VALID,19.7013,VALID,303,VALID,0.144141,
2012-05-09, 02:46:04,VALID,917.081,VALID,0,VALID,95.7577,VALID,0,VALID,19.7013,VALID,303,VALID,0.247266,
2012-05-09, 02:47:04,VALID,917.075,VALID,0,VALID,95.773,VALID,0,VALID,19.7208,VALID,303,VALID,0.0121094,
2012-05-09, 02:48:04,VALID,917.063,VALID,0,VALID,95.7958,VALID,0.107441,VALID,19.7208,VALID,303,VALID,0.4125,
2012-05-09, 02:49:04,VALID,917.027,VALID,0,VALID,95.7196,VALID,0,VALID,19.7208,VALID,303,VALID,0.378125,
2012-05-09, 02:50:04,VALID,917.042,VALID,0,VALID,95.6967,VALID,0.107441,VALID,19.6818,VALID,303,VALID,0.530859,
2012-05-09, 02:51:04,VALID,917,VALID,0,VALID,95.7577,VALID,0,VALID,19.6803,VALID,303,VALID,0.673437,
2012-05-09, 02:52:04,VALID,917.011,VALID,0,VALID,95.7196,VALID,0,VALID,19.6818,VALID,303,VALID,0.298438,
2012-05-09, 02:53:04,VALID,917.011,VALID,0,VALID,95.7425,VALID,0,VALID,19.6413,VALID,303,VALID,0.246875,
2012-05-09, 02:54:04,VALID,916.959,VALID,0,VALID,95.7882,VALID,0,VALID,19.6608,VALID,303,VALID,0.265234,
2012-05-09, 02:55:04,VALID,916.945,VALID,0,VALID,95.7425,VALID,0.107441,VALID,19.6413,VALID,303,VALID,0.593359,
2012-05-09, 02:56:04,VALID,916.959,VALID,0,VALID,95.7958,VALID,0.107441,VALID,19.6413,VALID,303,VALID,0.552734,
2012-05-09, 02:57:04,VALID,916.939,VALID,0,VALID,95.9026,VALID,0,VALID,19.6818,VALID,303,VALID,0.557813,
2012-05-09, 02:58:04,VALID,916.915,VALID,0,VALID,95.9254,VALID,0.107441,VALID,19.6608,VALID,303,VALID,0.307813,
2012-05-09, 02:59:04,VALID,916.884,VALID,0,VALID,95.9712,VALID,0.107441,VALID,19.6608,VALID,303,VALID,0.450781,
2012-05-09, 03:00:04,VALID,916.868,VALID,0,VALID,95.9788,VALID,0.107441,VALID,19.6428,VALID,303,VALID,0.341797,
2012-05-09, 03:01:04,VALID,916.845,VALID,0,VALID,96.0169,VALID,0,VALID,19.6233,VALID,303,VALID,0.580469,
2012-05-09, 03:02:04,VALID,916.827,VALID,0,VALID,96.0779,VALID,0.107441,VALID,19.6233,VALID,303,VALID,0.787109,
2012-05-09, 03:03:04,VALID,916.814,VALID,0,VALID,96.1313,VALID,0.107441,VALID,19.5843,VALID,303,VALID,0.325,
2012-05-09, 03:04:04,VALID,916.771,VALID,0,VALID,96.1846,VALID,0.107441,VALID,19.5243,VALID,303,VALID,0.779297,
2012-05-09, 03:05:04,VALID,916.767,VALID,0,VALID,96.2685,VALID,0.107441,VALID,19.5258,VALID,303,VALID,0.708984,
2012-05-09, 03:06:04,VALID,916.774,VALID,0,VALID,96.3676,VALID,0,VALID,19.5063,VALID,303,VALID,0.691016,
2012-05-09, 03:07:04,VALID,916.768,VALID,0,VALID,96.4819,VALID,0.107441,VALID,19.5063,VALID,303,VALID,0.950781,
2012-05-09, 03:08:04,VALID,916.704,VALID,0,VALID,96.5353,VALID,0,VALID,19.5063,VALID,303,VALID,0.795313,
2012-05-09, 03:09:04,VALID,916.724,VALID,0,VALID,96.5887,VALID,0,VALID,19.4868,VALID,303,VALID,0.435547,
2012-05-09, 03:10:04,VALID,916.725,VALID,0,VALID,96.6115,VALID,0,VALID,19.4673,VALID,303,VALID,0.839453,
2012-05-09, 03:11:04,VALID,916.742,VALID,0,VALID,96.6573,VALID,0,VALID,19.4883,VALID,303,VALID,0.598047,
2012-05-09, 03:12:04,VALID,916.738,VALID,0,VALID,96.7259,VALID,0,VALID,19.4673,VALID,303,VALID,0.231641,
2012-05-09, 03:13:04,VALID,916.753,VALID,0,VALID,96.764,VALID,0,VALID,19.4673,VALID,303,VALID,0.257422,
2012-05-09, 03:14:04,VALID,916.727,VALID,0,VALID,96.7869,VALID,0.107441,VALID,19.4868,VALID,303,VALID,0.710156,
2012-05-09, 03:15:04,VALID,916.704,VALID,0,VALID,96.8479,VALID,0,VALID,19.4868,VALID,303,VALID,0.564844,
2012-05-09, 03:16:04,VALID,916.662,VALID,0,VALID,96.8479,VALID,0,VALID,19.4868,VALID,303,VALID,0.666016,
2012-05-09, 03:17:04,VALID,916.667,VALID,0,VALID,96.8784,VALID,0,VALID,19.4868,VALID,303,VALID,0.385938,
2012-05-09, 03:18:04,VALID,916.641,VALID,0,VALID,96.9012,VALID,0,VALID,19.4673,VALID,303,VALID,0.516406,
2012-05-09, 03:19:04,VALID,916.656,VALID,0,VALID,96.9165,VALID,0,VALID,19.4673,VALID,303,VALID,0.439453,
2012-05-09, 03:20:04,VALID,916.621,VALID,0,VALID,96.9394,VALID,0,VALID,19.4463,VALID,303,VALID,0.265625,
2012-05-09, 03:21:04,VALID,916.602,VALID,0,VALID,96.9698,VALID,0.107441,VALID,19.4673,VALID,303,VALID,0.537891,
2012-05-09, 03:22:04,VALID,916.602,VALID,0,VALID,96.9698,VALID,0,VALID,19.4868,VALID,303,VALID,0.578125,
2012-05-09, 03:23:04,VALID,916.59,VALID,0,VALID,97.0003,VALID,0,VALID,19.4868,VALID,303,VALID,0.704687,
2012-05-09, 03:24:04,VALID,916.572,VALID,0,VALID,97.0156,VALID,0,VALID,19.4883,VALID,303,VALID,0.3375,
2012-05-09, 03:25:04,VALID,916.58,VALID,0,VALID,97.0232,VALID,0,VALID,19.4493,VALID,303,VALID,0.435156,
2012-05-09, 03:26:04,VALID,916.568,VALID,0,VALID,97.0003,VALID,0,VALID,19.4298,VALID,303,VALID,0.604688,
2012-05-09, 03:27:04,VALID,916.554,VALID,0,VALID,97.0385,VALID,0,VALID,19.4103,VALID,303,VALID,0.391406,
2012-05-09, 03:28:04,VALID,916.515,VALID,0,VALID,97.0613,VALID,0,VALID,19.4103,VALID,303,VALID,0.487109,
2012-05-09, 03:29:04,VALID,916.54,VALID,0,VALID,97.0766,VALID,0,VALID,19.4493,VALID,303,VALID,0.626172,
2012-05-09, 03:30:04,VALID,916.564,VALID,0,VALID,97.0842,VALID,0,VALID,19.4688,VALID,303,VALID,0.203125,
2012-05-09, 03:31:04,VALID,916.551,VALID,0,VALID,97.0842,VALID,0,VALID,19.4688,VALID,303,VALID,0.434375,
2012-05-09, 03:32:04,VALID,916.518,VALID,0,VALID,97.1223,VALID,0,VALID,19.4688,VALID,303,VALID,0.419141,
2012-05-09, 03:33:04,VALID,916.499,VALID,0,VALID,97.1223,VALID,0,VALID,19.4688,VALID,303,VALID,0.602734,
2012-05-09, 03:34:04,VALID,916.495,VALID,0,VALID,97.1223,VALID,0,VALID,19.4688,VALID,303,VALID,0.613672,
2012-05-09, 03:35:04,VALID,916.434,VALID,0,VALID,97.1376,VALID,0,VALID,19.4493,VALID,303,VALID,0.809766,
2012-05-09, 03:36:04,VALID,916.464,VALID,0,VALID,97.1452,VALID,0,VALID,19.4493,VALID,303,VALID,0.952344,
2012-05-09, 03:37:04,VALID,916.417,VALID,0,VALID,97.1376,VALID,0,VALID,19.4103,VALID,303,VALID,0.782422,
2012-05-09, 03:38:04,VALID,916.454,VALID,0,VALID,97.1528,VALID,0,VALID,19.4313,VALID,303,VALID,0.844922,
2012-05-09, 03:39:04,VALID,916.473,VALID,0,VALID,97.1528,VALID,0,VALID,19.3908,VALID,303,VALID,0.378906,
2012-05-09, 03:40:04,VALID,916.436,VALID,0,VALID,97.1452,VALID,0,VALID,19.3893,VALID,303,VALID,0.558984,
2012-05-09, 03:41:04,VALID,916.444,VALID,0,VALID,97.1681,VALID,0,VALID,19.3908,VALID,303,VALID,0.548047,
2012-05-09, 03:42:04,VALID,916.441,VALID,0,VALID,97.1604,VALID,0,VALID,19.3308,VALID,303,VALID,0.500781,
2012-05-09, 03:43:04,VALID,916.452,VALID,0,VALID,97.1833,VALID,0,VALID,19.3518,VALID,303,VALID,0.624609,
2012-05-09, 03:44:04,VALID,916.483,VALID,0,VALID,97.1909,VALID,0,VALID,19.2904,VALID,303,VALID,0.409766,
2012-05-09, 03:45:04,VALID,916.464,VALID,0,VALID,97.1909,VALID,0.107441,VALID,19.2918,VALID,303,VALID,0.496875,